Location: Colonia Mina de C?rbuni
(46.1667°N, 22.7167°E)
Time: 21:33:42
(UTC+00:00)

Tiros 1 - Pass Details

Date: 24 April 2024
Orbit: 624 x 657 km, 48.4° (Epoch: 20 May)

Event Time Altitude Azimuth Distance (km) Brightness Sun altitude
Rises 03:27:15 0° 286° (WNW) 2,911 10.0 -0.7°
Reaches altitude 10° 03:29:56 10° 272° (W) 1,998 9.1 -0.3°
Maximum altitude 03:33:34 23° 220° (SW) 1,318 8.3 0.3°
Drops below altitude 10° 03:37:10 10° 167° (SSE) 1,985 9.6 0.9°
Sets 03:39:50 0° 153° (SSE) 2,889 10.6 1.4°
